User: anonymous
Location: Unspecified
(0.0000°N, 0.0000°E)
Time: 15:37:04
(UTC+02:00)
Language:

Milstar 3 Cent rocket - Orbit

View from above orbital plane
View from above orbital plane
View from above satellite
View from above satellite

Ground track
Ground track

The orbit data is extracted from the following two-line orbital elements,

1 25725U 99023B   14099.04336447 0.00000100  00000-0  22035-3 0    07
2 25725  28.3191 319.5838 2390418  40.6507 319.3488  9.67155099    00
Epoch (UTC): 09 April 2014 01:02:26
Eccentricity: 0.2390418
inclination: 28.3191°
perigee height: 703 km
apogee height: 5151 km
right ascension of ascending node: 319.5838°
argument of perigee: 40.6507°
revolutions per day: 9.67155099
mean anomaly at epoch: 319.3488°
orbit number at epoch: 0

The dashed part of the orbit path shows where the satellite is in the earth's shadow,  

DLR